TimeEST,TemperatureF,Dew PointF,Humidity,Sea Level PressureIn,VisibilityMPH,Wind Direction,Wind SpeedMPH,Gust SpeedMPH,PrecipitationIn,Events,Conditions,WindDirDegrees,DateUTC
12:58 AM,30.6,19.4,63,30.45,10.0,NNW,9.2,-,N/A,,Clear,330,2013-11-04 05:58:00
1:58 AM,30.0,19.6,65,30.48,10.0,NNW,9.2,-,N/A,,Clear,340,2013-11-04 06:58:00
2:58 AM,29.8,19.4,65,30.50,10.0,North,10.4,-,N/A,,Clear,350,2013-11-04 07:58:00
3:58 AM,30.4,19.0,63,30.52,10.0,NNW,8.1,-,N/A,,Clear,340,2013-11-04 08:58:00
4:58 AM,29.3,18.5,64,30.54,10.0,North,6.9,-,N/A,,Clear,350,2013-11-04 09:58:00
5:58 AM,28.9,18.1,64,30.56,10.0,North,8.1,-,N/A,,Clear,350,2013-11-04 10:58:00
6:58 AM,29.1,18.3,64,30.57,10.0,North,6.9,-,N/A,,Clear,360,2013-11-04 11:58:00
7:58 AM,34.5,19.0,53,30.60,10.0,North,12.7,-,N/A,,Clear,10,2013-11-04 12:58:00
8:58 AM,38.1,19.4,47,30.61,10.0,NNE,12.7,-,N/A,,Clear,20,2013-11-04 13:58:00
9:58 AM,41.5,19.9,42,30.62,10.0,NE,10.4,-,N/A,,Clear,40,2013-11-04 14:58:00
10:47 AM,44.6,19.4,37,30.60,10.0,NE,13.8,-,N/A,,Clear,50,2013-11-04 15:47:00
10:58 AM,43.9,17.6,35,30.61,10.0,NE,11.5,-,N/A,,Clear,40,2013-11-04 15:58:00
11:58 AM,45.3,18.9,35,30.61,10.0,NE,10.4,17.3,N/A,,Clear,40,2013-11-04 16:58:00
12:58 PM,46.4,18.0,32,30.58,10.0,NNE,6.9,-,N/A,,Clear,20,2013-11-04 17:58:00
1:58 PM,46.9,19.8,34,30.58,10.0,NNE,5.8,-,N/A,,Clear,20,2013-11-04 18:58:00
2:58 PM,46.6,20.8,36,30.58,10.0,East,8.1,-,N/A,,Scattered Clouds,80,2013-11-04 19:58:00
3:58 PM,44.2,22.3,42,30.60,10.0,ENE,6.9,-,N/A,,Mostly Cloudy,70,2013-11-04 20:58:00
4:58 PM,40.6,24.8,53,30.62,10.0,East,4.6,-,N/A,,Partly Cloudy,90,2013-11-04 21:58:00
5:58 PM,37.8,25.5,61,30.61,10.0,East,6.9,-,N/A,,Mostly Cloudy,90,2013-11-04 22:58:00
6:15 PM,39.2,24.8,56,30.61,9.0,East,5.8,-,N/A,,Scattered Clouds,80,2013-11-04 23:15:00
6:24 PM,39.2,24.8,56,30.61,10.0,East,5.8,-,N/A,,Scattered Clouds,80,2013-11-04 23:24:00
6:58 PM,38.5,25.3,59,30.64,10.0,NE,4.6,-,N/A,,Partly Cloudy,50,2013-11-04 23:58:00
7:58 PM,34.0,25.5,71,30.62,10.0,NE,4.6,-,N/A,,Clear,40,2013-11-05 00:58:00
8:58 PM,34.5,24.8,68,30.64,10.0,NNE,5.8,-,N/A,,Scattered Clouds,20,2013-11-05 01:58:00
9:58 PM,34.3,24.8,68,30.65,10.0,NNE,3.5,-,N/A,,Partly Cloudy,30,2013-11-05 02:58:00
10:58 PM,35.1,26.2,70,30.62,10.0,NE,5.8,-,N/A,,Partly Cloudy,40,2013-11-05 03:58:00
11:58 PM,36.0,25.9,67,30.63,10.0,NNE,2.3,-,N/A,,Clear,20,2013-11-05 04:58:00